Location: *
(48.4333°N, 5.0333°W)
Time: 20:23:32
(UTC+00:00)

Cosmos 1300 - Pass Details

Date: 09 April 2020
Orbit: 511 x 515 km, 82.5° (Epoch: 25 May)

Event Time Altitude Azimuth Distance (km) Brightness Sun altitude
Exits shadow 20:17:39 - 171° (S) 2,026 5.4 -12.4°
Reaches altitude 10° 20:18:22 10° 168° (SSE) 1,737 5.0 -12.5°
Maximum altitude 20:22:02 47° 94° (E) 693 2.9 -13.1°
Drops below altitude 10° 20:25:44 10° 21° (NNE) 1,754 5.5 -13.6°
Sets 20:27:55 0° 15° (NNE) 2,646 6.5 -13.9°
